LGL962 DTNH-ELLX

Flight info

Callsign LGL962
Flight time N/A
Altitude 40000
Route VAXAL1D VAXAL UA411 TUC UA725 OSMAR DCT PIRIX DCT CAR DCT GIGGI DCT UPDUT DCT CORSI DCT OKROK DCT AKUTI DCT TORTU DCT ERTEV DCT LAGEN DCT AOSTA DCT ORSUD DCT MOLUS DCT GILIR/N0449F340 DCT PENDU DCT IXILU DCT EPL G21 GIVOR
Aircraft B737/M-SDE2E3FGHIRWXY/LB1

Departure

Time 2026-04-25 00:39
Airport Enfidha - Hammamet International Airport (DTNH)

Arrival

Time N/A
Airport Luxembourg-Findel International Airport (ELLX)
Time Latitude Longitude Altitude Speed Heading
2026-04-25 00:09 36.08149 10.43808 17 ft 0 kts 70°
2026-04-25 00:25 36.08148 10.43806 17 ft 1 kts 70°
2026-04-25 00:25 36.08147 10.43803 17 ft 0 kts 70°
2026-04-25 00:26 36.08142 10.43791 17 ft 2 kts 42°
2026-04-25 00:26 36.08131 10.43784 21 ft 2 kts
2026-04-25 00:26 36.08118 10.43781 19 ft 2 kts 18°
2026-04-25 00:26 36.08106 10.43775 19 ft 2 kts 30°
2026-04-25 00:27 36.08094 10.43765 19 ft 2 kts 44°
2026-04-25 00:27 36.08084 10.43751 20 ft 2 kts 58°
2026-04-25 00:27 36.08078 10.43734 17 ft 2 kts 90°
2026-04-25 00:27 36.08082 10.43716 17 ft 2 kts 136°
2026-04-25 00:28 36.08095 10.43706 21 ft 2 kts 152°
2026-04-25 00:28 36.08107 10.43696 17 ft 0 kts 136°
2026-04-25 00:32 36.08102 10.43702 21 ft 3 kts 136°
2026-04-25 00:32 36.08088 10.43718 21 ft 6 kts 135°
2026-04-25 00:33 36.08048 10.43796 17 ft 10 kts 103°
2026-04-25 00:33 36.08040 10.43893 17 ft 12 kts 106°
2026-04-25 00:33 36.07979 10.43932 17 ft 9 kts 178°
2026-04-25 00:33 36.07908 10.43932 17 ft 11 kts 179°
2026-04-25 00:34 36.07828 10.43932 20 ft 12 kts 180°
2026-04-25 00:34 36.07756 10.43957 18 ft 9 kts 128°
2026-04-25 00:34 36.07746 10.44030 17 ft 9 kts 91°
2026-04-25 00:34 36.07745 10.44112 17 ft 10 kts 91°
2026-04-25 00:35 36.07745 10.44199 17 ft 11 kts 90°
2026-04-25 00:35 36.07745 10.44296 17 ft 12 kts 90°
2026-04-25 00:35 36.07745 10.44403 16 ft 13 kts 90°
2026-04-25 00:35 36.07745 10.44522 16 ft 14 kts 89°
2026-04-25 00:36 36.07746 10.44652 16 ft 16 kts 89°
2026-04-25 00:36 36.07743 10.44790 15 ft 16 kts 92°
2026-04-25 00:36 36.07743 10.44922 15 ft 15 kts 90°
2026-04-25 00:36 36.07741 10.45056 14 ft 16 kts 91°
2026-04-25 00:37 36.07741 10.45195 14 ft 16 kts 90°
2026-04-25 00:37 36.07741 10.45341 14 ft 17 kts 90°
2026-04-25 00:37 36.07737 10.45474 14 ft 10 kts 101°
2026-04-25 00:37 36.07695 10.45512 13 ft 7 kts 174°
2026-04-25 00:38 36.07646 10.45513 13 ft 7 kts 182°
2026-04-25 00:38 36.07594 10.45495 15 ft 8 kts 205°
2026-04-25 00:38 36.07567 10.45457 14 ft 6 kts 258°
2026-04-25 00:38 36.07566 10.45401 14 ft 8 kts 271°
2026-04-25 00:39 36.07568 10.45150 15 ft 64 kts 270°
2026-04-25 00:39 36.07572 10.44297 16 ft 131 kts 270°
2026-04-25 00:39 36.07590 10.42977 229 ft 165 kts 271°
2026-04-25 00:39 36.07641 10.41582 1008 ft 162 kts 277°
2026-04-25 00:40 36.08127 10.40361 1753 ft 163 kts 316°
2026-04-25 00:40 36.09090 10.39470 2143 ft 189 kts 334°
2026-04-25 00:40 36.10443 10.39226 2425 ft 215 kts 11°
2026-04-25 00:40 36.11801 10.40135 2701 ft 235 kts 51°
2026-04-25 00:41 36.12628 10.41911 3244 ft 243 kts 62°
2026-04-25 00:41 36.13476 10.43740 3892 ft 247 kts 58°
2026-04-25 00:41 36.14679 10.45336 4407 ft 261 kts 30°
2026-04-25 00:41 36.16334 10.46266 5262 ft 263 kts 16°
2026-04-25 00:42 36.18115 10.46838 6130 ft 266 kts 12°
2026-04-25 00:42 36.19933 10.47358 7002 ft 269 kts 12°
2026-04-25 00:42 36.21739 10.47892 7906 ft 271 kts 13°
2026-04-25 00:42 36.23579 10.48455 8856 ft 274 kts 13°
2026-04-25 00:43 36.25434 10.49034 9837 ft 276 kts 13°
2026-04-25 00:43 36.27319 10.49606 10613 ft 285 kts
2026-04-25 00:43 36.29384 10.49540 10838 ft 313 kts 347°
2026-04-25 00:43 36.31545 10.48721 11111 ft 337 kts 341°
2026-04-25 00:44 36.33774 10.47680 11726 ft 347 kts 339°
2026-04-25 00:44 36.36036 10.46572 12537 ft 351 kts 339°
2026-04-25 00:44 36.38323 10.45447 13370 ft 356 kts 339°
2026-04-25 00:44 36.40618 10.44328 14144 ft 362 kts 339°
2026-04-25 00:45 36.42972 10.43191 14946 ft 365 kts 339°
2026-04-25 00:45 36.45356 10.42048 15804 ft 368 kts 339°
2026-04-25 00:45 36.47756 10.40903 16638 ft 372 kts 339°
2026-04-25 00:45 36.50182 10.39750 17451 ft 376 kts 339°
2026-04-25 00:46 36.52641 10.38581 18235 ft 380 kts 339°
2026-04-25 00:46 36.55124 10.37402 18945 ft 384 kts 339°
2026-04-25 00:46 36.60124 10.35025 20521 ft 385 kts 338°
2026-04-25 00:47 36.61785 10.34235 21034 ft 386 kts 338°
2026-04-25 00:47 36.65116 10.32649 22013 ft 389 kts 338°
2026-04-25 00:47 36.67647 10.31442 22725 ft 391 kts 338°
2026-04-25 00:47 36.70194 10.30228 23433 ft 393 kts 338°
2026-04-25 00:48 36.72750 10.29008 24049 ft 395 kts 338°
2026-04-25 00:48 36.75326 10.27777 24577 ft 398 kts 338°
2026-04-25 00:48 36.77919 10.26538 25087 ft 401 kts 338°
2026-04-25 00:48 36.79649 10.25711 25420 ft 403 kts 338°
2026-04-25 00:49 36.82288 10.24448 25768 ft 410 kts 338°
2026-04-25 00:49 36.85846 10.22796 26410 ft 413 kts 341°
2026-04-25 00:49 36.88631 10.21848 26943 ft 415 kts 345°
2026-04-25 00:49 36.91448 10.21002 27421 ft 418 kts 345°
2026-04-25 00:50 36.93367 10.20438 27713 ft 420 kts 345°
2026-04-25 00:50 36.97140 10.19321 28363 ft 421 kts 345°
2026-04-25 00:50 36.99033 10.18752 28665 ft 423 kts 345°
2026-04-25 00:50 37.01898 10.17878 29062 ft 426 kts 345°
2026-04-25 00:51 37.04789 10.16985 29427 ft 430 kts 345°
2026-04-25 00:51 37.07710 10.16077 29667 ft 436 kts 345°
2026-04-25 00:51 37.11618 10.14858 30192 ft 438 kts 345°
2026-04-25 00:51 37.14576 10.13933 30595 ft 438 kts 345°
2026-04-25 00:52 37.16572 10.13309 30917 ft 436 kts 345°
2026-04-25 00:52 37.19507 10.12392 31422 ft 434 kts 345°
2026-04-25 00:52 37.22390 10.11490 31893 ft 432 kts 345°
2026-04-25 00:52 37.25301 10.10579 32323 ft 431 kts 344°
2026-04-25 00:53 37.28211 10.09666 32712 ft 430 kts 344°
2026-04-25 00:53 37.31121 10.08753 33046 ft 431 kts 345°
2026-04-25 00:53 37.34033 10.07839 33353 ft 433 kts 345°
2026-04-25 00:53 37.36951 10.06923 33780 ft 431 kts 344°
2026-04-25 00:54 37.39846 10.06013 34231 ft 428 kts 344°
2026-04-25 00:54 37.42731 10.05106 34562 ft 427 kts 345°
2026-04-25 00:54 37.45574 10.04213 34820 ft 428 kts 345°
2026-04-25 00:54 37.48464 10.03305 35090 ft 428 kts 345°
2026-04-25 00:55 37.51354 10.02396 35405 ft 427 kts 345°
2026-04-25 00:55 37.55208 10.01183 35778 ft 427 kts 345°
2026-04-25 00:55 37.57119 10.00580 35911 ft 428 kts 345°
2026-04-25 00:55 37.60008 9.99669 36160 ft 428 kts 345°
2026-04-25 00:56 37.62894 9.98758 36467 ft 427 kts 345°
2026-04-25 00:56 37.65773 9.97848 36759 ft 426 kts 345°
2026-04-25 00:56 37.68609 9.96951 36998 ft 426 kts 345°
2026-04-25 00:56 37.71489 9.96040 37237 ft 426 kts 345°
2026-04-25 00:57 37.74363 9.95130 37502 ft 426 kts 345°
2026-04-25 00:57 37.77235 9.94218 37761 ft 425 kts 345°
2026-04-25 00:57 37.80110 9.93301 37892 ft 428 kts 345°
2026-04-25 00:57 37.83000 9.92377 38056 ft 429 kts 345°
2026-04-25 00:58 37.85890 9.91452 38339 ft 427 kts 345°
2026-04-25 00:58 37.88771 9.90529 38626 ft 426 kts 345°
2026-04-25 00:58 37.91642 9.89608 38819 ft 427 kts 345°
2026-04-25 00:58 37.94484 9.88696 38958 ft 427 kts 345°
2026-04-25 00:59 37.97367 9.87771 39125 ft 427 kts 345°
2026-04-25 00:59 38.00249 9.86845 39282 ft 428 kts 345°
2026-04-25 00:59 38.03135 9.85917 39423 ft 428 kts 345°
2026-04-25 00:59 38.06021 9.84988 39591 ft 428 kts 345°
2026-04-25 01:00 38.08906 9.84059 39746 ft 428 kts 345°
2026-04-25 01:00 38.11791 9.83130 39886 ft 428 kts 345°
2026-04-25 01:00 38.14672 9.82200 40026 ft 428 kts 345°
2026-04-25 01:01 38.20357 9.80364 40119 ft 432 kts 345°